RH
61 55 58 60 56 63 88 87 85 96 98 96 96 97 97 95 92 91 92 94 94 95 94 92 91 91 89
68 67 66 61 63 69 73 77 89 90 98 96 96 97 97 96 95 94 94 94 93 92 91 91 91 90 90
78 74 75 75 74 72 77 84 81 88 94 98 97 97 96 96 96 96 96 96 95 95 94 92 91 90 90
79 78 80 72 81 84 80 82 83 72 80 91 98 99 98 98 98 98 98 98 96 96 96 96 96 95 94
82 82 83 84 92 88 86 78 77 75 76 86 92 92 95 98 98 100 98 98 98 98 97 97 98 98 97
90 89 79 78 83 87 82 81 84 79 84 86 91 91 87 81 89 92 98 99 99 95 96 96 98 98 98
96 91 94 92 94 84 83 81 81 85 92 95 94 95 94 94 99 99 97 93 94 96 94 94 98 98 99
94 95 93 91 91 92 96 98 94 97 96 100 97 96 98 94 96 97 97 96 96 96 96 97 99 99 99
88 86 86 87 88 95 99 100 100 100 96 99 99 99 99 99 93 89 88 88 88 87 86 83 81 84 90
87 84 82 85 87 90 96 100 100 100 99 99 99 100 100 99 96 89 83 75 78 77 78 77 78 88 86
91 89 88 89 91 90 92 98 100 100 97 98 100 100 100 99 96 96 92 88 86 84 72 73 72 75 86
94 95 95 96 97 96 98 98 97 100 96 99 100 100 100 99 96 97 94 93 92 92 89 78 73 68 70
96 96 97 98 98 98 99 98 98 98 98 100 100 100 100 99 99 99 99 99 95 98 93 91 89 85 88
90 89 83 85 87 96 97 97 98 98 98 99 100 99 99 97 98 97 98 98 99 98 98 93 88 83 82
80 80 81 86 84 85 87 93 94 92 89 95 98 97 96 98 98 97 97 98 98 98 96 95 94 90 86
86 84 90 92 93 93 93 87 92 93 89 97 96 93 97 99 90 98 97 97 97 99 99 98 93 87 86
89 91 90 89 93 94 91 92 86 84 88 98 97 96 95 93 97 83 98 97 98 97 98 97 97 93 89
Wind_Speed
10 12 14 14 13 11 2 8 10 17 23 25 24 22 19 19 20 21 19 20 20 20 24 26 24 24 24
12 10 12 13 12 11 8 7 6 18 19 24 24 20 17 16 18 20 18 17 16 18 21 20 21 20 23
11 8 8 8 10 10 10 7 4 11 14 16 18 18 18 18 19 18 16 16 14 15 16 18 20 19 22
9 8 7 10 6 7 9 6 5 9 13 11 11 14 14 14 15 14 15 16 18 17 16 14 13 14 16
9 8 9 7 6 5 7 6 5 10 7 5 6 7 7 12 10 13 13 14 13 12 14 14 13 14 16
8 8 12 9 7 7 7 6 5 4 5 7 4 5 5 7 13 12 15 14 12 14 15 15 14 13 15
7 6 6 7 9 6 8 7 8 4 3 4 3 3 2 7 11 7 3 7 8 9 12 14 12 12 12
1 3 3 5 4 5 5 5 6 4 4 2 4 1 5 5 14 14 13 12 11 7 5 3 4 8 8
8 6 7 11 9 2 3 2 2 2 6 4 3 2 3 3 5 13 14 12 12 12 11 10 8 6 5
1 4 6 7 11 7 2 1 0 1 3 2 3 3 2 2 2 3 2 8 7 6 8 7 7 3 2
2 2 4 5 5 5 5 2 0 1 2 1 1 1 1 1 2 1 2 2 2 3 7 3 5 4 1
2 3 3 3 3 4 5 3 3 3 2 2 1 2 1 1 1 1 1 2 2 2 2 4 7 5 5
3 2 2 2 3 2 1 3 3 3 2 3 2 0 1 1 1 1 1 1 1 0 2 3 3 2 3
3 3 3 4 4 2 1 1 1 0 1 2 2 1 1 3 2 2 2 1 0 1 1 3 3 4 4
4 4 4 3 4 5 3 2 1 2 2 1 3 4 4 3 2 2 2 2 3 3 2 2 3 4 4
3 4 4 3 2 2 3 4 3 2 2 1 2 3 2 3 8 2 2 1 2 2 3 3 4 3 4
2 3 3 3 4 3 2 2 4 3 3 1 2 2 3 3 1 9 1 1 2 3 3 3 3 4 4
Wind_Direction
277 277 274 274 271 265 268 315 309 239 231 231 224 219 207 212 217 224 226 223 225 226 232 241 241 240 241
281 283 280 281 286 268 258 223 262 300 233 227 223 221 221 217 219 223 223 224 226 229 230 236 241 241 240
278 278 279 282 282 273 259 246 231 271 285 235 221 218 216 214 219 223 218 216 222 224 231 234 240 239 242
267 276 285 278 282 284 285 242 244 249 239 228 225 223 222 222 217 214 213 217 219 219 224 228 233 235 243
278 269 275 270 252 273 285 279 258 256 260 225 189 210 215 229 234 230 230 229 226 224 226 229 232 235 240
290 288 280 268 245 226 243 258 268 236 231 248 207 223 215 206 198 209 213 216 216 234 236 228 225 230 235
275 293 321 357 327 262 239 243 253 275 343 258 273 239 247 45 37 28 223 232 239 242 241 247 241 225 226
48 67 38 349 324 317 321 321 323 62 351 256 5 338 74 60 52 70 77 81 77 67 60 38 287 248 224
82 75 52 37 18 305 35 357 304 21 21 348 8 3 40 82 73 70 73 67 76 77 67 43 45 34 55
18 18 33 35 41 45 23 140 233 315 4 15 360 9 337 35 102 73 70 59 68 63 46 41 35 48 14
43 34 28 25 18 22 32 16 74 201 349 81 32 15 80 339 353 44 60 25 353 13 8 6 17 16 292
6 22 19 27 23 13 3 24 25 18 18 16 148 127 106 287 219 346 359 79 10 4 345 322 312 292 276
7 17 14 351 342 349 29 6 8 5 15 25 3 359 98 240 307 334 347 5 292 62 349 310 307 324 291
351 344 349 356 351 331 331 33 278 257 301 316 318 297 252 217 199 230 203 248 51 336 284 303 294 271 268
344 340 344 349 354 341 345 329 334 341 330 245 251 261 263 278 287 220 230 212 207 219 216 257 255 258 270
357 342 337 341 335 338 317 330 329 329 317 347 320 312 285 235 220 268 273 241 262 241 238 242 263 251 266
341 343 328 324 335 326 327 309 318 320 316 299 297 312 323 306 263 216 261 282 299 284 253 251 276 268 252